W5SDC Weather Reports


Display with metric or nautical units.
time (UTC)temp
F
wind
direction
speed
MPH
gust
MPH
rain 1hr
in
rain 24hr
in
rain mn
in
humidity
%
barometer
mb
20260903152027 86 195 8.0 12.0 0.00 0.00 0.00 73 1014.9
20260903151516 86 204 7.0 11.0 0.00 0.00 0.00 74 1014.9
20260903151022 85 224 8.0 12.0 0.00 0.00 0.00 74 1014.9
20260903150529 86 202 8.0 11.0 0.00 0.00 0.00 73 1014.9
20260903150017 86 205 9.0 13.0 0.00 0.00 0.00 73 1014.8
20260903145523 87 210 10.0 13.0 0.00 0.00 0.00 73 1014.8
20260903145030 86 198 8.0 12.0 0.00 0.00 0.00 74 1014.9
20260903144518 86 221 9.0 15.0 0.00 0.00 0.00 75 1014.9
20260903144024 85 202 8.0 11.0 0.00 0.00 0.00 76 1014.9
20260903143530 84 212 9.0 14.0 0.00 0.00 0.00 78 1014.9
20260903143019 84 183 10.0 13.0 0.00 0.00 0.00 78 1014.9
20260903142545 84 209 10.0 17.0 0.00 0.00 0.00 78 1014.8
20260903142032 83 205 9.0 12.0 0.00 0.00 0.00 80 1014.8
20260903141520 83 209 9.0 11.0 0.00 0.00 0.00 81 1014.8
20260903141046 82 177 8.0 13.0 0.00 0.00 0.00 83 1014.8
20260903140533 82 193 10.0 13.0 0.00 0.00 0.00 83 1014.8
20260903140041 81 224 10.0 12.0 0.00 0.00 0.00 83 1014.9
20260903135528 81 192 10.0 15.0 0.00 0.00 0.00 84 1014.9
20260903135016 81 192 8.0 11.0 0.00 0.00 0.00 84 1014.9
20260903134523 81 221 4.0 8.0 0.00 0.00 0.00 85 1014.9
20260903134029 81 186 8.0 11.0 0.00 0.00 0.00 85 1014.9
20260903133517 81 184 8.0 12.0 0.00 0.00 0.00 85 1014.9
20260903133024 81 197 7.0 10.0 0.00 0.00 0.00 86 1014.9
20260903132530 80 177 9.0 12.0 0.00 0.00 0.00 87 1014.9
20260903132018 80 226 7.0 13.0 0.00 0.00 0.00 87 1014.9
20260903131524 80 219 8.0 10.0 0.00 0.00 0.00 88 1014.9
20260903131031 80 213 6.0 10.0 0.00 0.00 0.00 89 1014.9
20260903130519 79 171 5.0 11.0 0.00 0.00 0.00 90 1014.9
20260903130026 79 200 6.0 8.0 0.00 0.00 0.00 91 1014.9
20260903125552 78 207 7.0 10.0 0.00 0.00 0.00 92 1014.9
20260903125020 77 225 6.0 9.0 0.00 0.00 0.00 93 1014.9
20260903124527 77 182 6.0 8.0 0.00 0.00 0.00 93 1014.8
20260903124015 77 202 8.0 10.0 0.00 0.00 0.00 94 1014.8
20260903123521 77 184 6.0 8.0 0.00 0.00 0.00 94 1014.6
20260903123048 77 196 6.0 11.0 0.00 0.00 0.00 94 1014.6
20260903122517 77 184 6.0 9.0 0.00 0.00 0.00 94 1014.6
20260903122023 77 185 6.0 9.0 0.00 0.00 0.00 94 1014.6
20260903121529 77 185 6.0 8.0 0.00 0.00 0.00 94 1014.6
20260903121038 77 191 5.0 8.0 0.00 0.00 0.00 94 1014.5
20260903120544 77 217 6.0 9.0 0.00 0.00 0.00 94 1014.5
20260903120031 77 198 6.0 9.0 0.00 0.00 0.00 94 1014.5
20260903115539 77 212 6.0 8.0 0.00 0.00 0.00 94 1014.5
20260903115025 77 206 5.0 8.0 0.00 0.00 0.00 94 1014.5
20260903114532 77 206 6.0 8.0 0.00 0.00 0.00 93 1014.5
20260903114100 77 194 7.0 12.0 0.00 0.00 0.00 93 1014.5
20260903113526 77 190 6.0 9.0 0.00 0.00 0.00 93 1014.5
20260903113033 77 169 6.0 10.0 0.00 0.00 0.00 93 1014.5
20260903112521 77 204 7.0 10.0 0.00 0.00 0.00 93 1014.5
20260903112027 77 186 7.0 12.0 0.00 0.00 0.00 93 1014.5
20260903111536 77 196 6.0 9.0 0.00 0.00 0.00 93 1014.4
20260903111022 77 147 7.0 11.0 0.00 0.00 0.00 93 1014.2
20260903110529 77 203 6.0 9.0 0.00 0.00 0.00 93 1014.2
20260903110017 77 192 6.0 8.0 0.00 0.00 0.00 93 1014.3
20260903105524 77 184 5.0 8.0 0.00 0.00 0.00 93 1014.3
20260903105030 77 156 7.0 10.0 0.00 0.00 0.00 93 1014.2
20260903104518 77 179 6.0 8.0 0.00 0.00 0.00 93 1014.1
20260903104025 77 188 7.0 9.0 0.00 0.00 0.00 93 1014.1
20260903103551 77 173 4.0 6.0 0.00 0.00 0.00 93 1014.1
20260903103019 77 201 6.0 11.0 0.00 0.00 0.00 93 1014.1
20260903102606 77 200 6.0 9.0 0.00 0.00 0.00 93 1014.0
20260903102032 77 207 6.0 9.0 0.00 0.00 0.00 93 1014.0
20260903101521 77 200 5.0 8.0 0.00 0.00 0.00 93 1014.0
20260903101027 77 196 6.0 10.0 0.00 0.00 0.00 93 1014.0
20260903100515 77 233 6.0 8.0 0.00 0.00 0.00 93 1014.0
20260903100022 77 188 5.0 8.0 0.00 0.00 0.00 93 1014.1
20260903095528 77 163 7.0 12.0 0.00 0.00 0.00 92 1014.1
20260903095016 77 189 6.0 8.0 0.00 0.00 0.00 92 1014.2
20260903094543 77 152 5.0 9.0 0.00 0.00 0.00 92 1014.2
20260903094030 77 180 6.0 8.0 0.00 0.00 0.00 92 1014.2
20260903093518 77 199 8.0 12.0 0.00 0.00 0.00 92 1014.3
20260903093024 77 193 8.0 9.0 0.00 0.00 0.00 92 1014.3
20260903092531 77 190 6.0 9.0 0.00 0.00 0.00 91 1014.4
20260903092019 77 196 6.0 9.0 0.00 0.00 0.00 91 1014.4
20260903091546 77 187 5.0 8.0 0.00 0.00 0.00 91 1014.5
20260903091033 77 183 6.0 8.0 0.00 0.00 0.00 91 1014.5
20260903090520 77 194 6.0 11.0 0.00 0.00 0.00 91 1014.5
20260903090107 77 191 7.0 14.0 0.00 0.00 0.00 90 1014.4
20260903085533 77 193 6.0 10.0 0.00 0.00 0.00 90 1014.4
20260903085021 77 177 6.0 9.0 0.00 0.00 0.00 90 1014.5
20260903084528 78 185 5.0 8.0 0.00 0.00 0.00 90 1014.5
20260903084016 78 173 5.0 8.0 0.00 0.00 0.00 90 1014.5
20260903083543 78 184 5.0 8.0 0.00 0.00 0.00 90 1014.5
20260903083049 78 205 6.0 8.0 0.00 0.00 0.00 89 1014.5
20260903082517 78 153 6.0 9.0 0.00 0.00 0.00 89 1014.5
20260903082023 78 173 5.0 10.0 0.00 0.00 0.00 89 1014.5
20260903081530 78 185 7.0 10.0 0.00 0.00 0.00 88 1014.4
20260903081038 78 211 8.0 10.0 0.00 0.00 0.00 88 1014.3
20260903080525 78 197 7.0 11.0 0.00 0.00 0.00 88 1014.3
20260903080031 78 173 7.0 12.0 0.00 0.00 0.00 87 1014.5
20260903075519 78 174 7.0 12.0 0.00 0.00 0.00 86 1014.5
20260903075026 78 183 7.0 11.0 0.00 0.00 0.00 86 1014.5
20260903074532 78 190 6.0 9.0 0.00 0.00 0.00 85 1014.5
20260903074040 79 173 6.0 9.0 0.00 0.00 0.00 84 1014.5
20260903073527 79 185 7.0 11.0 0.00 0.00 0.00 84 1014.6
20260903073015 79 185 7.0 10.0 0.00 0.00 0.00 83 1014.6
20260903072522 79 205 6.0 11.0 0.00 0.00 0.00 82 1014.7
20260903072028 79 190 6.0 8.0 0.00 0.00 0.00 82 1014.7
20260903071557 79 174 7.0 11.0 0.00 0.00 0.00 82 1014.7
20260903071023 79 181 7.0 9.0 0.00 0.00 0.00 81 1014.6
20260903070529 79 190 7.0 9.0 0.00 0.00 0.00 81 1014.6
20260903070018 79 195 7.0 11.0 0.00 0.00 0.00 80 1014.7
20260903065524 79 182 6.0 9.0 0.00 0.00 0.00 80 1014.7
20260903065051 80 200 5.0 9.0 0.00 0.00 0.00 79 1014.8
20260903064519 80 183 5.0 7.0 0.00 0.00 0.00 79 1014.8
20260903064025 80 185 6.0 7.0 0.00 0.00 0.00 78 1014.8
20260903063532 80 186 6.0 10.0 0.00 0.00 0.00 78 1014.9
20260903063020 80 199 5.0 7.0 0.00 0.00 0.00 77 1014.9
20260903062526 80 171 7.0 10.0 0.00 0.00 0.00 77 1014.9
20260903062033 80 189 7.0 10.0 0.00 0.00 0.00 76 1014.9
20260903061521 80 161 6.0 9.0 0.00 0.00 0.00 75 1014.9
20260903061027 80 174 6.0 11.0 0.00 0.00 0.00 75 1014.9
20260903060516 80 184 5.0 8.0 0.00 0.00 0.00 74 1014.9
20260903060022 81 160 6.0 7.0 0.00 0.00 0.00 74 1014.9
20260903055529 81 150 6.0 8.0 0.00 0.00 0.00 74 1014.9
20260903055017 81 146 6.0 9.0 0.00 0.00 0.00 74 1014.8
20260903054544 81 172 5.0 9.0 0.00 0.00 0.00 75 1014.7
20260903054050 81 169 6.0 9.0 0.00 0.00 0.00 75 1014.8
20260903053519 81 161 6.0 13.0 0.00 0.00 0.00 75 1014.8
20260903053025 80 164 7.0 10.0 0.00 0.00 0.00 75 1014.8
20260903052531 80 172 7.0 11.0 0.00 0.00 0.00 76 1014.8
20260903052040 80 187 5.0 8.0 0.00 0.00 0.00 77 1014.7
20260903051526 79 185 5.0 8.0 0.00 0.00 0.00 79 1014.7
20260903051052 79 137 4.0 5.0 0.00 0.00 0.00 80 1014.6
20260903050521 79 127 4.0 6.0 0.00 0.00 0.00 80 1014.6
20260903050027 79 151 4.0 5.0 0.00 0.00 0.00 80 1014.6
20260903045515 79 144 4.0 6.0 0.00 0.00 0.00 79 1014.6
20260903045042 79 130 4.0 6.0 0.00 0.00 0.00 79 1014.6
20260903044528 79 150 4.0 6.0 0.00 0.00 0.00 79 1014.6
20260903044016 80 130 4.0 7.0 0.00 0.00 0.00 78 1014.6
20260903043522 80 134 5.0 7.0 0.00 0.00 0.00 78 1014.5
20260903043029 80 161 5.0 7.0 0.00 0.00 0.00 77 1014.5
20260903042537 80 146 5.0 8.0 0.00 0.00 0.00 76 1014.6
20260903042124 81 123 7.0 10.0 0.00 0.00 0.00 75 1014.6
20260903041530 81 148 6.0 8.0 0.00 0.00 0.00 74 1014.7
20260903041018 81 115 6.0 10.0 0.00 0.00 0.00 73 1014.8
20260903040545 82 105 5.0 8.0 0.00 0.00 0.00 72 1014.8
20260903040031 82 133 6.0 7.0 0.00 0.00 0.00 71 1014.7
20260903035519 82 143 5.0 7.0 0.00 0.00 0.00 70 1014.7
20260903035025 83 106 9.0 16.0 0.00 0.00 0.00 68 1014.6
20260903034532 84 102 9.0 12.0 0.00 0.00 0.00 66 1014.5
20260903034020 84 115 11.0 15.0 0.00 0.00 0.00 64 1014.5
20260903033527 85 112 6.0 10.0 0.00 0.00 0.00 62 1014.4
20260903033033 86 96 6.0 8.0 0.00 0.00 0.00 61 1014.4
20260903032521 86 215 5.0 8.0 0.00 0.00 0.00 61 1014.1
20260903032028 86 89 5.0 8.0 0.00 0.00 0.00 61 1014.1
20260903031516 87 120 6.0 9.0 0.00 0.00 0.00 60 1013.9
20260903031022 87 129 5.0 6.0 0.00 0.00 0.00 60 1013.8
20260903030529 87 96 5.0 9.0 0.00 0.00 0.00 60 1013.8
20260903030021 87 157 3.0 4.0 0.00 0.00 0.00 60 1013.6
20260903025524 87 133 3.0 3.0 0.00 0.00 0.00 60 1013.6
20260903025030 87 134 2.0 4.0 0.00 0.00 0.00 60 1013.5
20260903024538 87 131 2.0 4.0 0.00 0.00 0.00 60 1013.5
20260903024025 87 107 2.0 4.0 0.00 0.00 0.00 60 1013.4
20260903023611 87 144 2.0 3.0 0.00 0.00 0.00 60 1013.3
20260903023019 87 113 2.0 4.0 0.00 0.00 0.00 60 1013.3
20260903022526 87 116 3.0 4.0 0.00 0.00 0.00 59 1013.1
20260903022032 87 131 3.0 5.0 0.00 0.00 0.00 59 1013.1
20260903021520 88 153 3.0 4.0 0.00 0.00 0.00 59 1013.0
20260903021027 88 137 3.0 4.0 0.00 0.00 0.00 58 1012.9
20260903020533 88 145 4.0 5.0 0.00 0.00 0.00 58 1012.9
20260903020041 88 144 3.0 5.0 0.00 0.00 0.00 57 1012.7
20260903015527 88 123 3.0 5.0 0.00 0.00 0.00 57 1012.7
20260903015016 89 130 3.0 4.0 0.00 0.00 0.00 56 1012.7
20260903014523 89 134 4.0 6.0 0.00 0.00 0.00 56 1012.7
20260903014029 89 136 2.0 5.0 0.00 0.00 0.00 56 1012.7
20260903013517 89 131 1.0 3.0 0.00 0.00 0.00 56 1012.6
20260903013023 89 143 2.0 3.0 0.00 0.00 0.00 55 1012.6
20260903012530 90 0.0 0.0 0.00 0.00 0.00 55 1012.7
20260903012018 90 0.0 0.0 0.00 0.00 0.00 55 1012.7
20260903011524 90 126 1.0 2.0 0.00 0.00 0.00 55 1012.6
20260903011031 90 141 2.0 3.0 0.00 0.00 0.00 55 1012.6
20260903010519 90 142 3.0 4.0 0.00 0.00 0.00 54 1012.6
20260903010026 91 138 2.0 3.0 0.00 0.00 0.00 54 1012.7
20260903005613 91 136 3.0 5.0 0.00 0.00 0.00 54 1012.7
20260903005020 92 129 3.0 5.0 0.00 0.00 0.00 53 1012.6
20260903004548 92 114 3.0 5.0 0.00 0.00 0.00 52 1012.6
20260903004015 92 131 4.0 5.0 0.00 0.00 0.00 51 1012.6
20260903003522 92 149 3.0 5.0 0.00 0.00 0.00 51 1012.6
20260903003028 93 126 3.0 4.0 0.00 0.00 0.00 50 1012.6
20260903002516 93 138 4.0 5.0 0.00 0.00 0.00 50 1012.6
20260903002043 93 158 4.0 5.0 0.00 0.00 0.00 50 1012.6
20260903001529 93 128 5.0 7.0 0.00 0.00 0.00 49 1012.5
20260903001038 94 116 4.0 7.0 0.00 0.00 0.00 47 1012.4
20260903000524 94 93 3.0 5.0 0.00 0.00 0.00 47 1012.4
20260903000031 95 99 4.0 6.0 0.00 0.00 0.00 47 1012.4
20260902235519 95 109 3.0 4.0 0.00 0.00 0.00 47 1012.4
20260902235106 95 154 2.0 3.0 0.00 0.00 0.00 47 1012.5
20260902234552 96 101 2.0 4.0 0.00 0.00 0.00 47 1012.6
20260902234040 95 26 3.0 4.0 0.00 0.00 0.00 47 1012.6
20260902233527 94 143 2.0 4.0 0.00 0.00 0.00 48 1012.6
20260902233033 94 55 4.0 5.0 0.00 0.00 0.00 48 1012.6
20260902232521 94 344 5.0 7.0 0.00 0.00 0.00 48 1012.4
20260902232028 95 1 6.0 9.0 0.00 0.00 0.00 47 1012.4
20260902231516 97 45 6.0 8.0 0.00 0.00 0.00 46 1012.4
20260902231024 101 359 5.0 11.0 0.00 0.00 0.00 41 1012.4
20260902230529 103 325 3.0 5.0 0.00 0.00 0.00 39 1012.4
20260902230017 102 296 4.0 5.0 0.00 0.00 0.00 40 1012.4
20260902225524 101 225 2.0 4.0 0.00 0.00 0.00 40 1012.4
20260902225030 102 241 4.0 5.0 0.00 0.00 0.00 39 1012.4
20260902224519 102 241 3.0 5.0 0.00 0.00 0.00 40 1012.4
20260902224025 101 179 3.0 5.0 0.00 0.00 0.00 41 1012.4
20260902223532 101 166 3.0 5.0 0.00 0.00 0.00 41 1012.4
20260902223020 100 206 4.0 6.0 0.00 0.00 0.00 41 1012.4
20260902222526 99 236 4.0 6.0 0.00 0.00 0.00 42 1012.4
20260902222033 100 202 4.0 6.0 0.00 0.00 0.00 41 1012.4
20260902221521 102 160 3.0 5.0 0.00 0.00 0.00 40 1012.5
20260902221028 102 287 2.0 4.0 0.00 0.00 0.00 40 1012.6
20260902220516 104 326 2.0 4.0 0.00 0.00 0.00 38 1012.6
20260902220042 103 287 2.0 5.0 0.00 0.00 0.00 39 1012.7
20260902215529 105 272 3.0 4.0 0.00 0.00 0.00 38 1012.7
20260902215017 104 295 2.0 4.0 0.00 0.00 0.00 38 1012.7
20260902214544 103 266 3.0 6.0 0.00 0.00 0.00 39 1012.7
20260902214050 101 205 2.0 7.0 0.00 0.00 0.00 40 1012.8
20260902213519 102 217 4.0 9.0 0.00 0.00 0.00 41 1012.9
20260902213025 101 265 4.0 6.0 0.00 0.00 0.00 41 1012.9
20260902212552 99 202 4.0 6.0 0.00 0.00 0.00 43 1012.9
20260902212020 99 208 5.0 8.0 0.00 0.00 0.00 42 1012.9
20260902211526 100 198 2.0 4.0 0.00 0.00 0.00 42 1012.9
20260902211032 100 220 4.0 6.0 0.00 0.00 0.00 41 1012.9
20260902210541 101 204 5.0 7.0 0.00 0.00 0.00 41 1013.0
20260902210027 103 215 4.0 6.0 0.00 0.00 0.00 40 1013.2
20260902205555 102 225 5.0 8.0 0.00 0.00 0.00 41 1013.2
20260902205022 101 217 5.0 8.0 0.00 0.00 0.00 41 1013.3
20260902204528 102 224 4.0 5.0 0.00 0.00 0.00 41 1013.4
20260902204016 100 198 5.0 8.0 0.00 0.00 0.00 42 1013.4
20260902203523 97 210 4.0 7.0 0.00 0.00 0.00 44 1013.6
20260902203029 97 183 6.0 8.0 0.00 0.00 0.00 44 1013.6
20260902202519 99 175 5.0 7.0 0.00 0.00 0.00 44 1013.7
20260902202024 99 189 6.0 9.0 0.00 0.00 0.00 43 1013.7
20260902201530 101 173 6.0 9.0 0.00 0.00 0.00 42 1013.8
20260902201019 102 163 5.0 7.0 0.00 0.00 0.00 41 1013.9
20260902200525 101 198 6.0 9.0 0.00 0.00 0.00 41 1013.9
20260902200032 101 173 5.0 7.0 0.00 0.00 0.00 41 1014.1
20260902195540 102 219 5.0 7.0 0.00 0.00 0.00 40 1014.1
20260902195046 102 214 4.0 6.0 0.00 0.00 0.00 40 1014.2
20260902194533 101 198 2.0 4.0 0.00 0.00 0.00 42 1014.2
20260902194021 99 218 3.0 5.0 0.00 0.00 0.00 43 1014.3
20260902193527 99 274 1.0 2.0 0.00 0.00 0.00 43 1014.4
20260902193055 100 304 3.0 4.0 0.00 0.00 0.00 42 1014.4
20260902192522 99 236 3.0 5.0 0.00 0.00 0.00 43 1014.7
20260902192028 98 345 2.0 4.0 0.00 0.00 0.00 43 1014.7
20260902191516 100 262 4.0 6.0 0.00 0.00 0.00 42 1014.7
20260902191023 101 253 3.0 5.0 0.00 0.00 0.00 41 1014.7
20260902190530 102 326 4.0 5.0 0.00 0.00 0.00 41 1014.8
20260902190017 104 291 3.0 6.0 0.00 0.00 0.00 40 1014.9
20260902185524 102 277 3.0 6.0 0.00 0.00 0.00 41 1014.9
20260902185030 100 335 5.0 8.0 0.00 0.00 0.00 43 1015.2
20260902184519 99 321 3.0 6.0 0.00 0.00 0.00 44 1015.3
20260902184025 98 325 4.0 7.0 0.00 0.00 0.00 45 1015.3
20260902183531 99 257 4.0 6.0 0.00 0.00 0.00 44 1015.3
20260902183040 99 262 4.0 6.0 0.00 0.00 0.00 44 1015.3
20260902182525 100 288 3.0 4.0 0.00 0.00 0.00 44 1015.4
20260902182031 99 178 3.0 7.0 0.00 0.00 0.00 44 1015.5
20260902181540 100 178 5.0 7.0 0.00 0.00 0.00 44 1015.6
20260902181106 102 227 5.0 8.0 0.00 0.00 0.00 43 1015.8
20260902180613 100 249 3.0 4.0 0.00 0.00 0.00 44 1015.8
20260902180040 98 167 4.0 7.0 0.00 0.00 0.00 45 1016.0
20260902175527 101 245 4.0 7.0 0.00 0.00 0.00 44 1016.0
20260902175033 100 278 2.0 4.0 0.00 0.00 0.00 44 1016.1
20260902174541 99 73 3.0 5.0 0.00 0.00 0.00 46 1016.2
20260902174048 99 165 5.0 7.0 0.00 0.00 0.00 46 1016.2
20260902173516 99 180 4.0 7.0 0.00 0.00 0.00 46 1016.4
20260902173022 99 160 5.0 7.0 0.00 0.00 0.00 46 1016.4
20260902172529 99 231 3.0 6.0 0.00 0.00 0.00 45 1016.5
20260902172057 100 316 4.0 7.0 0.00 0.00 0.00 45 1016.6
20260902171524 101 269 4.0 6.0 0.00 0.00 0.00 44 1016.6
20260902171050 98 208 4.0 5.0 0.00 0.00 0.00 47 1016.7
20260902170518 98 147 2.0 4.0 0.00 0.00 0.00 47 1016.7
20260902170025 98 165 3.0 5.0 0.00 0.00 0.00 47 1016.9
20260902165531 99 339 2.0 4.0 0.00 0.00 0.00 46 1016.9
20260902165019 97 240 3.0 5.0 0.00 0.00 0.00 49 1017.0
20260902164526 96 179 4.0 6.0 0.00 0.00 0.00 49 1017.0
20260902164032 96 181 4.0 7.0 0.00 0.00 0.00 49 1017.0
20260902163540 97 181 5.0 8.0 0.00 0.00 0.00 48 1017.1
20260902163027 98 234 4.0 6.0 0.00 0.00 0.00 48 1017.1
20260902162533 98 256 5.0 7.0 0.00 0.00 0.00 47 1017.1
20260902162021 97 257 4.0 6.0 0.00 0.00 0.00 48 1017.1
20260902161528 96 263 4.0 6.0 0.00 0.00 0.00 49 1017.1
20260902161016 96 250 4.0 10.0 0.00 0.00 0.00 49 1017.1
20260902160523 96 266 4.0 7.0 0.00 0.00 0.00 49 1017.1
20260902160029 95 203 2.0 4.0 0.00 0.00 0.00 51 1017.2
20260902155517 95 258 3.0 5.0 0.00 0.00 0.00 51 1017.2
20260902155024 93 253 4.0 6.0 0.00 0.00 0.00 52 1017.2
20260902154530 94 276 5.0 7.0 0.00 0.00 0.00 51 1017.2
20260902154018 94 261 4.0 6.0 0.00 0.00 0.00 52 1017.2
20260902153525 94 276 5.0 7.0 0.00 0.00 0.00 52 1017.2
20260902153052 94 247 4.0 7.0 0.00 0.00 0.00 53 1017.2
20260902152520 93 307 4.0 9.0 0.00 0.00 0.00 54 1017.2